Vorticity
-2 1 4 7 7 8 9 10 9 9 9 10 9 8 7 6 6 6 6 7 7 8 9 9 10 11 12 12 11 10 9 8 8 8 9 10 10 10 10 9 8 7 6 6 5 5 5 5 5 4 4 3 3 3 3 4 4 5 6 8 9 9 9 8 8 8 7 7 6
1 5 7 8 8 9 11 12 12 11 11 10 9 7 6 6 6 6 7 7 8 8 9 9 10 11 11 11 10 9 8 8 8 9 10 10 10 10 9 8 7 6 5 5 4 4 4 4 4 3 3 2 2 3 4 5 6 6 8 9 10 9 9 8 8 8 7 6 5
8 11 11 10 9 11 13 15 14 12 11 10 9 7 6 6 6 6 7 8 8 8 9 9 10 11 11 9 9 9 9 9 10 10 10 10 10 10 9 7 6 5 4 4 3 3 2 2 2 2 2 1 2 4 5 6 7 8 9 10 10 9 9 9 9 8 7 6 5
13 14 14 12 11 12 14 15 13 12 10 10 8 7 6 6 6 7 7 8 8 8 9 10 10 10 10 8 8 8 9 10 11 11 11 10 10 9 7 6 4 3 2 2 2 2 2 2 2 1 1 1 2 4 5 6 8 9 10 10 10 9 9 9 9 8 6 5 5
16 16 15 13 12 13 13 13 11 10 9 8 7 6 6 6 6 7 7 7 8 9 10 10 10 10 9 8 8 8 9 11 11 11 11 10 10 8 6 4 3 2 1 1 1 2 2 2 2 1 1 2 3 4 6 7 9 10 10 10 9 9 9 9 8 7 6 6 6
17 16 14 12 12 11 11 10 9 9 8 8 7 6 6 6 7 7 7 8 9 9 10 10 10 9 8 7 8 9 10 11 12 11 11 10 8 6 4 2 1 1 1 1 2 2 3 2 2 2 2 3 4 6 7 8 9 10 10 9 9 9 8 8 7 6 6 6 7
16 14 12 11 10 10 9 9 9 8 8 8 7 7 7 7 7 8 8 9 9 9 9 9 8 8 7 7 8 10 11 12 12 11 10 8 5 3 1 0 0 1 2 2 3 3 3 3 3 3 4 5 6 7 8 9 10 10 9 9 8 8 7 7 6 6 6 7 7
12 11 10 9 9 9 9 9 9 9 8 8 8 7 7 7 7 8 8 9 10 9 8 8 8 7 7 8 10 12 13 13 11 9 7 4 2 1 0 1 1 2 3 3 4 4 4 4 5 5 5 6 7 8 9 9 10 10 9 9 8 7 6 6 6 6 7 7 8
10 9 9 9 9 9 9 9 9 9 9 8 8 8 7 7 7 8 8 9 9 8 7 7 7 8 8 10 12 13 13 12 9 6 3 1 1 1 1 2 2 3 4 4 4 4 4 5 7 7 8 8 8 9 9 10 10 10 9 8 7 6 6 6 6 7 7 8 8
8 8 8 8 9 9 9 9 9 9 9 8 8 7 7 7 7 8 9 9 8 7 7 7 7 9 11 13 13 13 11 8 5 3 2 1 1 1 2 3 3 4 4 4 4 5 6 7 8 8 9 10 10 10 10 11 10 10 9 8 6 6 6 7 7 8 8 9 9
7 8 8 8 8 9 9 9 9 10 9 8 7 7 7 7 8 9 9 8 7 7 7 8 10 12 13 13 12 10 7 4 2 2 1 2 2 2 3 3 4 4 4 4 5 6 8 9 9 10 10 11 11 12 12 11 10 9 8 7 6 6 6 7 8 9 9 9 9
7 8 8 8 9 9 9 10 9 9 9 8 7 7 7 8 9 8 8 7 7 8 9 11 13 14 13 11 8 6 3 2 1 1 2 2 2 3 3 3 4 4 5 5 7 8 9 10 10 11 11 12 12 12 12 11 10 8 8 6 6 6 7 8 9 9 9 9 9
7 7 8 8 9 10 10 11 10 10 9 8 7 8 9 10 9 8 7 7 8 10 11 14 14 13 11 8 5 3 2 1 2 2 2 2 3 3 3 4 5 6 7 8 9 10 10 11 11 12 12 12 12 11 10 9 8 8 7 6 6 7 8 9 9 9 9 9 10
6 7 8 8 9 10 11 12 11 10 10 8 9 9 10 10 9 8 8 9 11 12 14 14 13 10 7 5 3 2 2 2 2 2 2 2 3 4 5 6 7 8 9 10 10 11 11 11 12 12 12 12 11 10 8 8 8 8 8 7 7 8 9 10 10 9 9 9 10
6 6 7 8 9 11 12 13 12 11 11 10 10 10 10 10 9 9 10 11 13 14 14 12 10 6 4 2 2 2 2 2 2 2 2 3 4 5 6 8 9 10 11 11 11 12 12 12 12 12 11 10 9 8 7 6 7 7 8 8 9 10 11 11 10 9 9 9 9
5 6 6 7 9 11 13 14 12 12 12 11 11 11 10 9 9 10 11 12 13 13 12 10 7 4 2 1 1 2 2 2 3 3 3 4 5 7 8 10 11 11 11 11 12 12 13 13 12 11 10 9 7 6 6 6 6 7 9 10 11 12 11 10 9 9 9 9 9
4 5 6 7 10 12 14 13 12 12 12 12 11 11 10 9 10 11 12 12 11 11 10 7 5 3 2 1 1 2 3 3 3 4 4 6 7 9 10 11 11 12 12 12 12 13 13 12 12 10 9 7 6 6 6 6 7 9 10 12 12 12 11 9 9 9 9 9 8
3 4 6 8 11 13 14 14 13 13 13 12 11 10 10 10 11 11 11 10 10 9 8 5 3 2 1 2 2 3 3 4 4 5 6 8 9 10 11 11 12 12 12 13 13 13 12 12 10 8 7 5 5 6 6 7 9 10 11 12 11 10 9 8 9 9 9 8 7
3 4 7 10 12 14 15 15 14 14 13 12 11 11 11 12 11 11 10 9 9 7 6 3 2 2 2 3 3 3 4 4 5 7 8 10 10 11 11 11 12 12 13 13 13 12 11 9 8 6 5 4 5 6 7 8 9 11 11 11 10 9 9 9 9 9 9 7 6
3 5 8 11 14 16 16 16 15 14 13 12 11 11 11 11 11 10 9 8 7 5 4 3 3 3 4 4 4 4 5 6 8 9 10 11 11 11 11 12 12 12 12 12 11 10 8 7 5 4 4 4 5 6 7 8 10 11 11 10 9 9 9 9 10 9 8 7 5
4 6 8 12 15 17 17 16 15 13 12 12 11 11 11 11 10 9 8 7 5 4 4 4 5 5 5 5 5 6 7 9 10 11 11 11 11 11 11 11 11 11 11 10 9 7 6 5 4 4 4 5 6 6 8 9 10 10 10 9 9 9 9 10 10 9 7 6 5
5 7 10 13 16 17 17 16 14 13 12 11 11 11 11 10 8 7 6 5 5 4 4 5 5 6 6 6 7 8 9 11 11 11 11 10 11 11 11 11 10 10 9 8 7 6 5 5 5 5 5 6 6 7 8 10 10 10 9 8 8 9 10 10 10 8 6 5 5
5 8 11 14 16 17 17 15 14 12 12 11 11 10 10 8 7 6 5 5 5 5 5 5 5 6 6 7 9 10 11 11 11 11 10 10 10 10 10 10 9 8 8 7 6 5 5 5 5 6 7 7 7 8 9 10 10 9 8 8 9 10 10 10 9 7 6 5 5
5 9 12 15 18 18 17 15 14 12 12 11 10 9 8 7 6 6 5 5 5 5 5 5 5 6 7 9 10 11 11 10 9 9 9 9 9 9 9 8 8 8 7 6 6 6 6 6 6 7 7 8 8 9 9 10 9 9 8 8 10 10 10 9 7 6 5 5 6
5 10 15 18 20 20 18 16 13 12 11 9 8 7 7 7 6 6 6 6 5 6 6 6 7 8 9 10 11 11 10 9 8 7 7 7 8 8 8 8 8 8 7 7 7 8 8 8 8 8 8 8 9 9 9 10 9 9 9 10 10 10 9 7 6 5 5 5 6
7 13 19 23 23 21 18 14 12 10 8 7 7 7 7 7 8 8 8 8 8 8 8 9 9 10 11 11 11 10 9 7 6 6 6 6 6 6 7 7 8 8 8 8 8 9 9 9 9 9 8 8 9 9 9 9 9 9 10 11 11 10 7 5 4 5 5 6 7
11 19 24 25 24 20 16 11 9 7 6 6 6 7 8 9 10 10 10 11 11 10 10 11 11 11 12 12 11 9 8 6 6 6 6 6 6 6 6 7 7 8 8 8 9 9 10 10 10 9 9 9 9 9 9 8 8 9 10 11 10 8 6 4 4 4 5 7 7
18 24 27 25 22 17 12 8 6 5 5 5 6 7 9 10 11 12 12 13 12 12 12 12 12 12 12 11 10 8 7 5 5 5 5 5 5 6 6 6 7 7 8 8 9 9 10 10 10 10 10 10 10 9 9 8 8 9 10 10 9 7 5 4 4 5 6 7 7
22 26 26 23 18 13 8 6 4 4 3 4 5 7 9 11 11 12 12 12 12 12 11 11 11 11 11 11 9 8 6 6 5 5 5 5 5 6 6 7 7 7 8 9 9 9 10 10 10 10 10 10 10 9 9 9 9 9 10 9 7 6 5 4 5 6 7 7 7
24 25 24 20 14 9 6 4 2 2 2 2 4 6 8 9 9 9 9 9 9 10 10 11 11 11 11 10 9 8 7 7 7 7 6 6 6 7 7 7 8 8 8 9 9 10 10 10 9 9 10 10 10 9 9 9 9 10 9 8 6 5 5 5 6 6 7 7 6
24 23 20 16 11 7 4 2 1 -0 -0 1 3 5 6 6 6 6 7 8 9 10 10 11 11 11 11 11 11 10 10 10 9 9 9 9 9 9 9 9 9 9 9 10 10 10 10 10 10 10 10 9 9 9 9 9 10 10 9 7 5 5 5 5 6 7 7 7 6
22 20 17 13 8 5 2 1 -1 -2 -2 -0 2 3 3 2 3 5 7 9 10 11 11 10 11 12 12 13 12 12 12 12 11 11 10 10 10 10 9 9 10 10 10 10 11 11 11 11 10 10 10 9 9 9 9 10 10 9 8 6 5 5 5 6 6 7 7 6 6
20 17 14 10 6 3 1 -0 -2 -3 -3 -1 1 1 0 1 3 5 7 9 10 11 11 11 12 12 13 13 12 12 11 11 11 10 10 9 8 8 8 8 9 9 10 11 11 12 11 11 11 11 10 9 9 9 9 10 10 9 8 6 5 5 6 6 7 7 6 6 6
17 14 11 7 4 2 0 -1 -3 -4 -3 -2 -0 -0 -1 -0 2 4 7 9 10 11 11 11 11 10 10 9 8 8 8 9 9 10 10 9 8 8 7 8 9 9 9 10 10 10 9 9 9 10 10 10 10 10 10 10 9 8 7 6 5 6 6 7 7 6 6 6 6
14 12 8 5 3 1 -0 -1 -3 -4 -4 -2 -1 -1 -1 -1 1 4 6 9 10 10 10 10 9 7 6 5 5 5 6 7 9 10 10 10 10 10 9 10 9 8 8 7 7 6 6 8 9 10 11 11 11 10 10 10 9 8 6 5 5 6 6 7 7 6 6 6 6
12 9 6 3 2 1 -0 -1 -3 -4 -4 -3 -2 -1 -1 -0 1 3 6 7 8 8 7 7 6 4 3 2 2 3 4 6 7 9 9 10 10 10 11 11 10 9 7 7 8 9 10 11 12 12 12 12 11 10 10 10 8 7 6 5 6 6 7 7 6 6 6 6 6
9 6 4 3 1 1 0 -1 -2 -3 -3 -2 -2 -1 -1 0 2 3 4 6 6 6 5 5 4 3 2 1 1 1 2 4 5 7 8 8 9 9 10 10 10 9 9 10 12 13 14 14 13 12 12 11 11 10 10 9 7 6 5 5 6 6 7 6 6 6 6 6 6
8 5 3 2 2 1 1 -0 -1 -1 -2 -2 -2 -1 -0 1 2 3 4 5 5 5 4 3 3 2 1 -1 -1 -1 0 2 4 5 6 7 8 8 9 10 10 10 11 12 13 14 14 15 14 13 12 12 11 10 9 8 6 5 5 5 6 6 7 6 6 6 6 6 6
7 4 3 2 2 2 2 1 0 -0 -1 -1 -1 -1 -0 1 2 2 4 5 5 4 2 2 2 1 -0 -2 -2 -2 -1 0 2 3 4 4 6 7 8 10 12 13 13 12 11 11 13 14 14 14 13 12 11 10 8 6 5 5 5 6 6 6 6 6 6 6 6 6 7
7 4 3 2 3 3 2 2 1 0 -0 -1 -1 -0 0 1 1 2 3 4 4 3 1 0 0 -0 -1 -1 -2 -3 -3 -2 -2 -2 -2 -2 0 3 6 10 13 15 14 13 11 11 12 13 14 14 14 13 12 10 8 6 5 5 5 6 7 6 6 6 6 6 6 6 7
9 5 3 2 3 3 3 3 2 1 -0 -0 -0 0 0 1 1 2 2 3 3 2 -0 -2 -2 -2 -1 -1 -2 -3 -4 -5 -6 -7 -8 -7 -5 -1 4 8 12 14 15 14 13 12 13 14 14 14 14 13 12 10 7 5 5 5 6 7 7 7 6 5 6 6 6 6 7
Height
3034 3037 3039 3042 3044 3046 3048 3050 3052 3054 3056 3058 3060 3062 3063 3065 3067 3069 3071 3072 3074 3076 3077 3078 3080 3082 3083 3084 3085 3086 3087 3088 3090 3091 3092 3093 3094 3095 3096 3097 3098 3099 3101 3102 3103 3104 3105 3106 3107 3108 3108 3108 3109 3109 3109 3110 3110 3111 3112 3112 3113 3113 3113 3113 3113 3114 3114 3114 3114
3034 3037 3039 3042 3044 3046 3048 3050 3052 3054 3057 3059 3061 3062 3064 3066 3067 3069 3071 3072 3074 3075 3077 3078 3080 3081 3082 3083 3085 3086 3087 3088 3089 3091 3092 3093 3094 3095 3096 3097 3098 3099 3101 3102 3103 3104 3105 3106 3107 3107 3107 3108 3109 3109 3110 3110 3110 3111 3111 3112 3112 3112 3113 3113 3113 3113 3114 3114 3114
3035 3037 3039 3042 3044 3046 3048 3050 3052 3054 3057 3059 3061 3062 3064 3066 3067 3069 3071 3072 3074 3075 3077 3078 3079 3081 3082 3083 3084 3086 3087 3088 3089 3090 3091 3092 3094 3095 3096 3097 3098 3100 3101 3102 3103 3104 3105 3105 3106 3106 3107 3108 3109 3109 3110 3110 3110 3111 3111 3112 3112 3112 3112 3113 3113 3113 3113 3113 3114
3035 3037 3039 3042 3044 3046 3048 3050 3052 3055 3057 3059 3061 3063 3064 3066 3068 3069 3071 3072 3074 3075 3076 3078 3079 3080 3082 3083 3084 3085 3087 3088 3089 3090 3091 3092 3094 3095 3096 3097 3099 3100 3101 3102 3103 3104 3104 3105 3105 3106 3106 3107 3108 3109 3110 3110 3110 3111 3111 3111 3111 3112 3112 3112 3113 3113 3113 3113 3113
3035 3037 3039 3042 3044 3047 3049 3051 3053 3055 3057 3059 3061 3062 3064 3066 3068 3069 3071 3072 3073 3075 3076 3077 3079 3080 3081 3082 3084 3085 3086 3087 3089 3090 3091 3093 3094 3095 3097 3098 3099 3100 3101 3102 3102 3103 3104 3104 3105 3105 3106 3107 3108 3108 3109 3109 3110 3110 3111 3111 3111 3112 3112 3112 3112 3113 3113 3113 3113
3035 3037 3040 3042 3045 3047 3049 3051 3053 3055 3057 3059 3061 3062 3064 3066 3067 3069 3070 3072 3073 3074 3076 3077 3078 3080 3081 3082 3083 3085 3086 3087 3089 3090 3092 3093 3094 3096 3097 3098 3099 3100 3101 3102 3102 3103 3103 3104 3104 3105 3105 3106 3107 3108 3108 3109 3109 3110 3110 3110 3111 3111 3112 3112 3112 3112 3112 3112 3112
3036 3038 3041 3043 3045 3047 3049 3051 3053 3055 3057 3059 3061 3062 3064 3066 3067 3069 3070 3072 3073 3074 3076 3077 3078 3080 3081 3082 3083 3085 3086 3087 3089 3090 3092 3093 3095 3096 3097 3098 3099 3100 3100 3101 3102 3102 3103 3104 3104 3105 3105 3106 3107 3107 3108 3108 3109 3109 3110 3110 3111 3111 3111 3112 3112 3112 3112 3112 3112
3037 3039 3041 3043 3045 3047 3049 3051 3053 3055 3057 3059 3061 3062 3064 3066 3067 3069 3070 3072 3073 3074 3075 3077 3078 3080 3081 3082 3084 3085 3087 3088 3089 3091 3092 3094 3095 3096 3097 3098 3099 3099 3100 3101 3102 3102 3103 3103 3104 3104 3105 3106 3106 3107 3107 3108 3108 3109 3109 3110 3110 3111 3111 3111 3111 3112 3112 3112 3112
3038 3040 3042 3044 3046 3047 3049 3051 3053 3055 3057 3059 3061 3063 3064 3066 3067 3069 3070 3072 3073 3074 3076 3077 3078 3080 3082 3083 3084 3086 3087 3089 3090 3091 3092 3094 3095 3096 3097 3098 3098 3099 3100 3101 3101 3102 3102 3103 3104 3104 3105 3105 3106 3107 3107 3107 3108 3108 3109 3109 3110 3110 3111 3111 3111 3111 3111 3111 3111
3038 3040 3042 3044 3046 3048 3050 3052 3054 3056 3057 3059 3061 3063 3064 3066 3068 3069 3071 3072 3073 3075 3076 3077 3079 3080 3082 3083 3085 3087 3088 3089 3091 3092 3093 3094 3095 3096 3097 3097 3098 3099 3100 3100 3101 3101 3102 3103 3103 3104 3104 3105 3106 3106 3107 3107 3108 3108 3108 3109 3109 3110 3110 3110 3110 3110 3111 3111 3111
3040 3041 3043 3045 3047 3048 3050 3052 3054 3056 3057 3059 3061 3062 3064 3066 3067 3069 3071 3072 3073 3075 3076 3078 3079 3081 3082 3084 3085 3087 3088 3089 3091 3092 3093 3094 3095 3096 3097 3097 3098 3099 3099 3100 3100 3101 3102 3102 3103 3103 3104 3105 3105 3106 3107 3107 3107 3108 3108 3109 3109 3109 3109 3110 3110 3110 3110 3110 3111
3041 3042 3044 3045 3047 3049 3050 3052 3054 3056 3057 3059 3061 3062 3064 3066 3067 3069 3071 3072 3074 3075 3077 3078 3080 3082 3083 3084 3086 3087 3088 3089 3091 3092 3093 3094 3095 3096 3096 3097 3098 3098 3099 3099 3100 3101 3101 3102 3102 3103 3104 3104 3105 3106 3106 3107 3107 3107 3108 3108 3108 3109 3109 3109 3109 3110 3110 3110 3110
3041 3042 3044 3046 3047 3049 3051 3052 3054 3055 3057 3059 3060 3062 3064 3066 3067 3069 3071 3072 3074 3076 3077 3079 3081 3082 3083 3085 3086 3087 3088 3089 3090 3092 3092 3093 3094 3095 3096 3097 3097 3098 3098 3099 3099 3100 3101 3102 3102 3103 3103 3104 3105 3105 3106 3106 3107 3107 3107 3107 3108 3108 3109 3109 3109 3109 3110 3110 3110
3041 3042 3044 3046 3047 3049 3051 3052 3054 3055 3057 3059 3060 3062 3064 3066 3067 3069 3071 3073 3075 3076 3078 3079 3081 3082 3084 3085 3086 3087 3088 3089 3090 3091 3092 3093 3094 3095 3096 3097 3097 3097 3098 3099 3099 3100 3101 3101 3102 3102 3103 3103 3104 3105 3105 3106 3106 3107 3107 3107 3107 3108 3108 3108 3109 3109 3109 3109 3109
3041 3042 3044 3046 3047 3049 3051 3052 3054 3055 3057 3058 3060 3062 3064 3066 3068 3070 3072 3073 3075 3077 3078 3079 3081 3082 3083 3085 3086 3087 3088 3089 3090 3091 3092 3093 3094 3095 3096 3096 3097 3097 3098 3098 3099 3100 3100 3101 3102 3102 3103 3103 3104 3104 3105 3106 3106 3107 3107 3107 3107 3107 3108 3108 3108 3108 3109 3109 3109
3041 3042 3044 3046 3047 3049 3051 3052 3054 3055 3057 3059 3061 3062 3064 3066 3068 3070 3072 3073 3075 3077 3078 3080 3081 3082 3083 3084 3086 3087 3088 3089 3090 3091 3092 3093 3093 3094 3095 3096 3097 3097 3098 3098 3099 3099 3100 3101 3101 3102 3102 3103 3104 3104 3105 3105 3106 3106 3107 3107 3107 3107 3107 3107 3108 3108 3108 3108 3108
3041 3043 3044 3046 3047 3049 3051 3052 3054 3055 3057 3059 3061 3063 3065 3067 3068 3070 3072 3073 3075 3077 3078 3079 3081 3082 3083 3084 3085 3086 3087 3088 3089 3090 3091 3092 3093 3094 3095 3096 3096 3097 3097 3098 3099 3099 3100 3100 3101 3102 3102 3103 3104 3104 3105 3105 3106 3106 3106 3106 3107 3107 3107 3107 3107 3107 3107 3107 3107
3041 3043 3045 3046 3047 3049 3051 3052 3054 3056 3057 3059 3061 3063 3065 3067 3068 3070 3072 3073 3075 3077 3078 3080 3081 3083 3084 3085 3085 3086 3087 3088 3089 3090 3091 3092 3093 3094 3094 3095 3096 3097 3097 3098 3098 3099 3100 3100 3101 3102 3102 3103 3103 3104 3105 3105 3105 3105 3106 3106 3106 3106 3107 3107 3107 3107 3107 3107 3107
3042 3043 3045 3046 3048 3049 3051 3053 3054 3056 3058 3060 3062 3064 3066 3067 3069 3070 3072 3074 3076 3077 3079 3080 3082 3083 3084 3084 3085 3086 3087 3088 3089 3090 3091 3092 3093 3093 3094 3095 3096 3096 3097 3097 3098 3099 3100 3100 3101 3102 3102 3103 3103 3104 3104 3104 3105 3105 3105 3105 3106 3106 3106 3106 3106 3107 3107 3107 3107
3042 3043 3045 3047 3048 3050 3052 3053 3055 3057 3059 3061 3063 3064 3066 3068 3070 3071 3072 3074 3076 3078 3080 3081 3082 3082 3083 3084 3085 3086 3087 3088 3089 3090 3091 3092 3092 3093 3094 3095 3095 3096 3097 3097 3098 3099 3099 3100 3101 3101 3102 3102 3103 3103 3104 3104 3104 3104 3104 3105 3105 3105 3105 3106 3106 3106 3106 3106 3106
3042 3044 3045 3047 3049 3050 3052 3054 3056 3058 3060 3062 3063 3065 3067 3068 3070 3072 3074 3076 3077 3078 3079 3080 3081 3082 3083 3084 3085 3086 3087 3088 3089 3090 3091 3092 3092 3093 3094 3094 3095 3096 3096 3097 3098 3098 3099 3100 3100 3101 3101 3102 3102 3103 3103 3103 3103 3104 3104 3104 3104 3105 3105 3105 3105 3105 3106 3106 3106
3042 3044 3046 3047 3049 3051 3053 3055 3057 3059 3061 3062 3064 3066 3068 3069 3071 3073 3075 3076 3077 3078 3079 3080 3081 3082 3083 3084 3085 3087 3087 3088 3089 3090 3091 3092 3092 3093 3093 3094 3095 3095 3096 3097 3097 3098 3098 3099 3100 3100 3101 3101 3102 3102 3102 3102 3103 3103 3103 3104 3104 3104 3104 3105 3105 3105 3105 3105 3105
3043 3045 3047 3048 3050 3052 3054 3056 3058 3060 3061 3063 3065 3067 3069 3071 3072 3074 3075 3076 3077 3077 3078 3080 3081 3082 3083 3084 3086 3087 3087 3088 3089 3090 3091 3092 3092 3093 3093 3094 3095 3095 3096 3097 3097 3097 3098 3098 3099 3100 3100 3101 3101 3102 3102 3102 3102 3102 3103 3103 3104 3104 3104 3104 3104 3105 3105 3105 3105
3044 3046 3047 3049 3051 3052 3054 3057 3058 3060 3062 3064 3066 3068 3070 3071 3072 3073 3075 3076 3077 3078 3079 3080 3081 3082 3083 3085 3086 3087 3087 3088 3089 3090 3091 3092 3092 3093 3093 3094 3094 3095 3096 3096 3097 3097 3097 3098 3099 3099 3100 3100 3101 3101 3101 3102 3102 3102 3102 3103 3103 3103 3104 3104 3104 3104 3104 3105 3105
3045 3046 3048 3049 3051 3053 3055 3057 3059 3062 3063 3066 3067 3069 3070 3071 3072 3073 3075 3076 3077 3078 3079 3080 3082 3082 3084 3085 3086 3087 3087 3088 3089 3090 3091 3092 3092 3093 3093 3094 3094 3095 3095 3096 3096 3097 3097 3098 3098 3099 3099 3100 3100 3101 3101 3101 3101 3102 3102 3102 3103 3103 3103 3103 3104 3104 3104 3104 3104
3046 3047 3048 3050 3052 3054 3056 3058 3061 3063 3065 3066 3067 3069 3070 3072 3073 3074 3075 3076 3077 3078 3080 3081 3082 3083 3084 3085 3086 3087 3087 3088 3089 3090 3091 3092 3092 3093 3093 3094 3094 3095 3095 3096 3096 3097 3097 3097 3098 3098 3099 3099 3100 3100 3100 3101 3101 3101 3102 3102 3102 3103 3103 3103 3103 3103 3104 3104 3104
3046 3047 3049 3051 3053 3055 3057 3060 3062 3063 3065 3067 3068 3069 3071 3072 3073 3074 3076 3077 3078 3079 3080 3081 3082 3083 3084 3085 3086 3087 3087 3088 3089 3090 3090 3091 3092 3093 3093 3094 3094 3095 3095 3096 3096 3096 3097 3097 3098 3098 3098 3099 3099 3099 3100 3100 3101 3101 3102 3102 3102 3102 3102 3103 3103 3103 3103 3103 3103
3047 3048 3050 3052 3054 3056 3058 3060 3062 3064 3066 3067 3068 3070 3071 3072 3073 3075 3076 3077 3078 3079 3080 3081 3082 3083 3084 3085 3086 3087 3088 3088 3089 3090 3091 3091 3092 3092 3093 3094 3094 3095 3095 3095 3096 3096 3097 3097 3097 3098 3098 3098 3098 3099 3099 3100 3100 3101 3101 3102 3102 3102 3102 3102 3102 3103 3103 3103 3103
3047 3048 3051 3052 3055 3057 3059 3061 3063 3064 3066 3067 3069 3070 3072 3073 3074 3075 3076 3077 3079 3080 3081 3082 3083 3084 3084 3085 3086 3087 3088 3089 3089 3090 3091 3092 3092 3093 3093 3094 3094 3094 3095 3095 3096 3096 3097 3097 3097 3097 3097 3098 3098 3098 3099 3100 3100 3101 3101 3101 3102 3102 3102 3102 3102 3102 3102 3103 3103
3047 3049 3051 3053 3056 3057 3060 3062 3063 3065 3067 3068 3069 3071 3072 3073 3074 3076 3077 3078 3079 3080 3081 3082 3083 3084 3085 3086 3087 3087 3088 3089 3090 3091 3091 3092 3092 3093 3093 3094 3094 3094 3095 3095 3096 3096 3096 3097 3097 3097 3097 3097 3098 3098 3099 3099 3100 3100 3101 3101 3101 3102 3102 3102 3102 3102 3102 3102 3102
3048 3050 3052 3054 3056 3058 3060 3062 3064 3065 3067 3068 3070 3071 3072 3073 3075 3076 3077 3078 3079 3080 3082 3082 3083 3084 3085 3086 3087 3088 3088 3089 3090 3091 3092 3092 3092 3093 3093 3094 3094 3094 3094 3095 3095 3096 3096 3096 3097 3097 3097 3097 3098 3098 3098 3099 3099 3100 3100 3101 3101 3101 3102 3102 3102 3102 3102 3102 3102
3049 3051 3053 3055 3057 3059 3061 3062 3064 3066 3067 3069 3070 3071 3072 3074 3075 3076 3077 3078 3080 3081 3082 3082 3083 3084 3086 3087 3087 3088 3089 3090 3090 3091 3092 3092 3092 3093 3093 3093 3094 3094 3094 3095 3095 3095 3096 3096 3097 3097 3097 3097 3097 3098 3098 3099 3099 3100 3100 3100 3101 3101 3101 3101 3102 3102 3102 3102 3102
3049 3052 3053 3056 3057 3059 3061 3063 3065 3066 3068 3069 3070 3072 3073 3074 3076 3077 3078 3079 3080 3081 3082 3083 3084 3085 3086 3087 3087 3088 3089 3090 3091 3091 3092 3092 3092 3093 3093 3093 3094 3094 3094 3094 3095 3095 3096 3096 3096 3097 3097 3097 3097 3098 3098 3098 3099 3099 3099 3100 3100 3101 3101 3101 3101 3101 3101 3101 3101
3050 3052 3054 3056 3058 3060 3062 3063 3065 3067 3068 3069 3071 3072 3073 3075 3076 3077 3078 3079 3080 3081 3082 3083 3084 3086 3086 3087 3088 3089 3089 3090 3091 3091 3092 3092 3092 3093 3093 3093 3093 3094 3094 3094 3095 3095 3095 3096 3096 3097 3097 3097 3097 3097 3098 3098 3098 3099 3099 3099 3100 3100 3100 3100 3101 3101 3101 3101 3100
3051 3053 3055 3057 3059 3060 3062 3064 3065 3067 3068 3070 3071 3072 3074 3075 3076 3077 3079 3080 3081 3082 3083 3084 3085 3086 3087 3087 3088 3089 3089 3090 3091 3091 3092 3092 3092 3092 3093 3093 3093 3093 3094 3094 3094 3095 3095 3096 3096 3096 3097 3097 3097 3097 3097 3098 3098 3098 3099 3099 3099 3100 3100 3100 3100 3100 3100 3100 3100
3052 3054 3056 3057 3059 3061 3062 3064 3066 3067 3069 3070 3072 3073 3074 3075 3077 3078 3079 3080 3081 3082 3083 3084 3085 3086 3087 3087 3088 3089 3089 3090 3091 3091 3092 3092 3092 3092 3092 3093 3093 3093 3094 3094 3094 3095 3095 3095 3095 3095 3096 3096 3096 3097 3097 3097 3098 3098 3098 3099 3099 3099 3099 3099 3099 3099 3099 3099 3099
3053 3055 3056 3058 3060 3061 3063 3065 3066 3068 3069 3071 3072 3073 3074 3076 3077 3078 3079 3081 3082 3082 3083 3084 3085 3086 3087 3087 3088 3089 3089 3090 3091 3091 3092 3092 3092 3092 3093 3093 3093 3093 3094 3094 3094 3094 3094 3094 3095 3095 3095 3096 3096 3096 3097 3097 3097 3098 3098 3099 3099 3099 3099 3099 3099 3099 3099 3099 3099
3053 3055 3057 3059 3060 3062 3064 3065 3067 3068 3070 3071 3072 3074 3075 3076 3077 3078 3079 3081 3082 3082 3083 3084 3085 3086 3087 3087 3088 3089 3089 3090 3091 3091 3091 3092 3092 3092 3093 3093 3093 3093 3094 3094 3094 3094 3094 3094 3094 3095 3095 3095 3096 3096 3096 3097 3097 3097 3098 3098 3099 3099 3099 3099 3099 3099 3099 3099 3099
3054 3056 3057 3059 3061 3062 3064 3066 3067 3069 3070 3072 3073 3074 3075 3076 3077 3078 3079 3081 3081 3082 3083 3084 3085 3086 3087 3087 3088 3088 3089 3090 3090 3091 3091 3092 3092 3092 3093 3093 3093 3093 3093 3093 3093 3094 3094 3094 3094 3094 3095 3095 3096 3096 3096 3097 3097 3097 3097 3098 3098 3098 3098 3098 3098 3098 3098 3098 3098
3055 3056 3058 3060 3061 3063 3065 3066 3068 3069 3070 3072 3073 3074 3075 3076 3077 3078 3079 3080 3081 3082 3083 3084 3084 3085 3086 3087 3087 3088 3089 3089 3090 3090 3091 3091 3092 3092 3093 3093 3093 3093 3093 3093 3093 3093 3093 3093 3094 3094 3094 3095 3095 3096 3096 3096 3097 3097 3097 3097 3098 3098 3098 3098 3098 3098 3098 3098 3098
3055 3057 3058 3060 3062 3063 3065 3067 3068 3069 3071 3072 3073 3074 3075 3076 3077 3078 3079 3080 3081 3082 3082 3083 3084 3085 3086 3086 3087 3088 3088 3089 3089 3090 3090 3091 3091 3092 3092 3092 3093 3093 3093 3093 3093 3093 3093 3093 3093 3093 3094 3094 3095 3095 3096 3096 3096 3097 3097 3097 3097 3097 3097 3098 3098 3098 3098 3097 3097